sat.trackr.live / text

‹ back to catalog

PISAT

NORAD 41784 · 2016-059B

PAYLOAD ACTIVE UNKNOWN

§ Identity

Operator
Country
IND
Launch date
2016-09-26
Launch site
SRILR
Launch vehicle
Mass (kg)
RCS (m²)
0.15

Purposes: science, tech_demo

External: N2YO · Heavens-Above · Gunter

§ Orbital elements

Epoch: 2026-05-25T02:53:41.588736Z

Period
98.03 min
Inclination
97.8179°
Eccentricity
0.0027493
Mean motion
14.68936209 rev/d
Perigee alt
645.1 km
Apogee alt
683.8 km
Semi-major
7,042.6 km
B*
1.3236e-4
RAAN
146.5658°
Arg perigee
279.8747°
Mean anomaly
79.9355°
Rev number
51,635

§ Raw data

PISAT1 41784U 16059B   26145.12062024  .00000731  00000+0  13236-3 0  99982 41784  97.8179 146.5658 0027493 279.8747  79.9355 14.68936209516357

JSON: /api/v1/satellites/41784 · /tle

For live sub-satellite position, see the globe view (requires WebGL).

§ Visibility from observer

Set your observer location to see the next 7 days of passes ≥ 10°. The values pass through the URL so the page stays shareable.

No JS? Fill the form by hand. The geolocation button needs JavaScript.